KD0RXN-4 Weather Reports


time (UTC)temp
C
wind
direction
speed
KPH
gust
KPH
rain 1hr
cm
rain 24hr
cm
rain mn
cm
humidity
%
barometer
mb
20260505060023 19 227 0.0 1.6 0.00 0.00 0.00 68 1002.8
20260505055527 19 231 0.0 1.6 0.00 0.00 0.00 68 1002.9
20260505055025 19 203 0.0 1.6 0.00 0.00 0.00 68 1002.8
20260505054527 19 185 0.0 1.6 0.00 0.00 0.00 68 1002.9
20260505054032 19 207 0.0 1.6 0.00 0.00 0.00 68 1003.0
20260505053520 19 199 0.0 0.0 0.00 0.00 0.00 68 1003.0
20260505053027 19 200 0.0 1.6 0.00 0.00 0.00 67 1003.1
20260505052531 19 192 0.0 1.6 0.00 0.00 0.00 67 1003.3
20260505052036 19 162 0.0 1.6 0.00 0.00 0.00 67 1003.3
20260505051521 19 192 0.0 0.0 0.00 0.00 0.00 68 1003.4
20260505051025 20 211 0.0 0.0 0.00 0.00 0.00 67 1003.2
20260505050530 20 201 0.0 0.0 0.00 0.00 0.00 67 1003.1
20260505041543 20 175 0.0 1.6 0.00 0.00 0.00 65 1003.3
20260505041027 20 153 0.0 0.0 0.00 0.00 0.00 64 1003.4
20260505040552 21 188 0.0 0.0 0.00 0.00 0.00 64 1003.6
20260505040036 21 163 0.0 0.0 0.00 0.00 0.00 63 1003.8
20260505035522 21 185 0.0 0.0 0.00 0.00 0.00 63 1003.8
20260505035026 21 194 0.0 0.0 0.00 0.00 0.00 62 1003.6
20260505034532 21 190 0.0 0.0 0.00 0.00 0.00 62 1003.5
20260505034037 21 231 0.0 12.9 0.00 0.00 0.00 62 1003.4
20260505033542 21 229 1.6 12.9 0.00 0.00 0.00 62 1003.6
20260505033045 21 223 0.0 4.8 0.00 0.00 0.00 61 1003.3
20260505032529 21 206 0.0 9.7 0.00 0.00 0.00 61 1003.3
20260505032055 21 222 1.6 14.5 0.00 0.00 0.00 60 1003.4
20260505031539 21 208 1.6 6.4 0.00 0.00 0.00 60 1003.3
20260505031028 22 227 1.6 8.0 0.00 0.00 0.00 60 1003.3
20260505030532 22 219 1.6 8.0 0.00 0.00 0.00 59 1003.2
20260505030018 22 213 0.0 14.5 0.00 0.00 0.00 59 1003.1
20260505025523 22 236 1.6 16.1 0.00 0.00 0.00 59 1003.2
20260505025029 22 222 3.2 12.9 0.00 0.00 0.00 59 1003.1
20260505024534 22 256 3.2 12.9 0.00 0.00 0.00 59 1003.1
20260505024040 22 190 0.0 6.4 0.00 0.00 0.00 59 1003.0
20260505023524 22 176 1.6 9.7 0.00 0.00 0.00 58 1002.9
20260505023029 22 205 1.6 9.7 0.00 0.00 0.00 58 1003.1
20260505022557 22 213 0.0 8.0 0.00 0.00 0.00 57 1003.0
20260505022020 22 199 1.6 8.0 0.00 0.00 0.00 57 1003.0
20260505021525 22 230 0.0 3.2 0.00 0.00 0.00 57 1003.1
20260505021035 22 239 0.0 6.4 0.00 0.00 0.00 57 1003.0
20260505020520 22 182 0.0 8.0 0.00 0.00 0.00 56 1002.6
20260505020047 22 174 0.0 8.0 0.00 0.00 0.00 56 1002.6
20260505015531 22 203 0.0 6.4 0.00 0.00 0.00 56 1002.5
20260505015056 23 229 0.0 3.2 0.00 0.00 0.00 56 1002.6
20260505014520 23 212 0.0 3.2 0.00 0.00 0.00 56 1002.6
20260505014026 23 204 0.0 1.6 0.00 0.00 0.00 55 1002.7
20260505013531 23 218 0.0 1.6 0.00 0.00 0.00 55 1002.6
20260505013036 23 220 0.0 1.6 0.00 0.00 0.00 54 1002.3
20260505012521 23 224 0.0 4.8 0.00 0.00 0.00 54 1002.3
20260505012027 23 214 0.0 9.7 0.00 0.00 0.00 54 1002.3
20260505011532 23 225 0.0 12.9 0.00 0.00 0.00 53 1002.3
20260505011020 23 188 0.0 12.9 0.00 0.00 0.00 52 1002.2
20260505010524 23 184 0.0 4.8 0.00 0.00 0.00 52 1002.2
20260505010029 24 246 0.0 1.6 0.00 0.00 0.00 52 1002.2
20260505005555 24 213 0.0 4.8 0.00 0.00 0.00 51 1002.0
20260505005018 24 192 0.0 9.7 0.00 0.00 0.00 52 1002.0
20260505004524 24 192 1.6 9.7 0.00 0.00 0.00 52 1002.0
20260505004029 24 211 0.0 8.0 0.00 0.00 0.00 52 1001.9
20260505003535 24 215 0.0 3.2 0.00 0.00 0.00 52 1001.8
20260505003020 24 203 0.0 4.8 0.00 0.00 0.00 51 1001.8
20260505002525 25 225 0.0 4.8 0.00 0.00 0.00 50 1001.8
20260505002031 25 211 0.0 3.2 0.00 0.00 0.00 50 1001.9
20260505001520 25 211 1.6 11.3 0.00 0.00 0.00 49 1001.8
20260505001044 25 198 0.0 11.3 0.00 0.00 0.00 49 1001.9
20260505000549 25 198 1.6 4.8 0.00 0.00 0.00 49 1001.9
20260505000033 25 190 0.0 4.8 0.00 0.00 0.00 49 1001.9
20260504235558 25 199 0.0 3.2 0.00 0.00 0.00 49 1002.0
20260504235022 26 178 0.0 6.4 0.00 0.00 0.00 48 1001.9
20260504234527 26 232 0.0 12.9 0.00 0.00 0.00 48 1001.9
20260504234032 26 207 3.2 12.9 0.00 0.00 0.00 47 1001.9
20260504233518 26 186 1.6 11.3 0.00 0.00 0.00 46 1001.9
20260504233044 26 220 1.6 11.3 0.00 0.00 0.00 46 1001.9
20260504232526 26 221 3.2 11.3 0.00 0.00 0.00 46 1002.0
20260504232031 26 240 1.6 14.5 0.00 0.00 0.00 46 1002.0
20260504231536 26 200 1.6 16.1 0.00 0.00 0.00 46 1002.0
20260504231025 26 200 1.6 12.9 0.00 0.00 0.00 47 1002.0
20260504230530 26 254 0.0 14.5 0.00 0.00 0.00 47 1002.1
20260504230036 26 194 1.6 14.5 0.00 0.00 0.00 47 1002.0
20260504225521 26 203 1.6 9.7 0.00 0.00 0.00 47 1002.0
20260504225026 26 161 0.0 14.5 0.00 0.00 0.00 47 1002.0
20260504224532 26 275 1.6 14.5 0.00 0.00 0.00 46 1002.1
20260504224017 26 212 0.0 11.3 0.00 0.00 0.00 46 1002.0
20260504223522 26 197 1.6 17.7 0.00 0.00 0.00 47 1002.1
20260504223028 26 213 4.8 17.7 0.00 0.00 0.00 46 1002.1
20260504222534 26 200 1.6 8.0 0.00 0.00 0.00 46 1002.1
20260504222021 26 177 1.6 20.9 0.00 0.00 0.00 45 1002.3
20260504221525 26 218 4.8 20.9 0.00 0.00 0.00 46 1002.2
20260504221050 26 231 4.8 19.3 0.00 0.00 0.00 46 1002.2
20260504220534 26 213 3.2 19.3 0.00 0.00 0.00 46 1002.2
20260504220018 26 259 1.6 16.1 0.00 0.00 0.00 47 1002.2
20260504215523 26 211 1.6 9.7 0.00 0.00 0.00 47 1002.3
20260504215048 26 200 1.6 20.9 0.00 0.00 0.00 47 1002.3
20260504214552 26 229 1.6 11.3 0.00 0.00 0.00 47 1002.3
20260504214017 26 188 1.6 11.3 0.00 0.00 0.00 47 1002.3
20260504213523 26 284 1.6 16.1 0.00 0.00 0.00 47 1002.3
20260504213028 26 202 1.6 16.1 0.00 0.00 0.00 47 1002.3
20260504212533 26 232 1.6 22.5 0.00 0.00 0.00 47 1002.3
20260504212018 26 202 3.2 22.5 0.00 0.00 0.00 47 1002.5
20260504211528 26 188 4.8 22.5 0.00 0.00 0.00 47 1002.5
20260504211032 26 186 1.6 16.1 0.00 0.00 0.00 46 1002.6
20260504210518 26 189 3.2 20.9 0.00 0.00 0.00 45 1002.5
20260504210043 27 201 6.4 20.9 0.00 0.00 0.00 45 1002.5
20260504205527 27 208 3.2 25.7 0.00 0.00 0.00 46 1002.5
20260504205032 26 202 4.8 25.7 0.00 0.00 0.00 45 1002.6
20260504204517 26 246 3.2 17.7 0.00 0.00 0.00 45 1002.7
20260504204023 27 175 3.2 9.7 0.00 0.00 0.00 45 1002.8
20260504203528 26 239 1.6 19.3 0.00 0.00 0.00 45 1002.7
20260504203033 27 193 6.4 19.3 0.00 0.00 0.00 43 1002.8
20260504202518 27 234 4.8 16.1 0.00 0.00 0.00 44 1003.0
20260504202028 26 265 3.2 20.9 0.00 0.00 0.00 45 1003.0
20260504201533 27 227 4.8 20.9 0.00 0.00 0.00 44 1003.1
20260504201037 26 217 3.2 16.1 0.00 0.00 0.00 45 1003.0
20260504200522 27 232 1.6 25.7 0.00 0.00 0.00 44 1003.1
20260504200048 27 212 4.8 17.7 0.00 0.00 0.00 45 1003.2
20260504195531 26 228 1.6 16.1 0.00 0.00 0.00 45 1003.4
20260504195035 26 201 3.2 12.9 0.00 0.00 0.00 45 1003.4
20260504194519 26 200 1.6 19.3 0.00 0.00 0.00 45 1003.3
20260504194044 26 200 3.2 19.3 0.00 0.00 0.00 45 1003.6
20260504193530 26 156 3.2 17.7 0.00 0.00 0.00 45 1003.5
20260504193035 26 219 1.6 16.1 0.00 0.00 0.00 45 1003.5
20260504192520 26 194 3.2 24.1 0.00 0.00 0.00 45 1003.6
20260504192029 26 275 4.8 24.1 0.00 0.00 0.00 45 1003.7
20260504191533 26 231 3.2 22.5 0.00 0.00 0.00 45 1003.7
20260504191018 26 226 4.8 17.7 0.00 0.00 0.00 45 1003.6
20260504190543 26 229 1.6 19.3 0.00 0.00 0.00 44 1003.7
20260504190047 26 200 1.6 19.3 0.00 0.00 0.00 45 1003.7
20260504185531 26 245 1.6 11.3 0.00 0.00 0.00 46 1003.7
20260504185057 26 206 1.6 14.5 0.00 0.00 0.00 46 1003.8
20260504184520 26 207 1.6 17.7 0.00 0.00 0.00 45 1003.9
20260504184045 26 207 3.2 20.9 0.00 0.00 0.00 44 1003.9
20260504183528 26 257 4.8 22.5 0.00 0.00 0.00 45 1003.8
20260504183036 26 266 3.2 22.5 0.00 0.00 0.00 45 1003.9
20260504182520 26 246 1.6 17.7 0.00 0.00 0.00 46 1003.9
20260504182026 26 259 1.6 20.9 0.00 0.00 0.00 45 1003.9
20260504181529 26 230 3.2 20.9 0.00 0.00 0.00 45 1004.0
20260504181018 26 215 3.2 16.1 0.00 0.00 0.00 45 1004.0
20260504180524 26 238 0.0 4.8 0.00 0.00 0.00 46 1003.9
20260504180029 26 200 0.0 20.9 0.00 0.00 0.00 46 1004.0
20260504175534 26 200 1.6 20.9 0.00 0.00 0.00 46 1004.0
20260504175019 25 229 3.2 24.1 0.00 0.00 0.00 46 1004.0
20260504174545 25 244 4.8 24.1 0.00 0.00 0.00 46 1004.0
20260504174049 25 258 1.6 22.5 0.00 0.00 0.00 46 1004.0
20260504173532 25 199 3.2 22.5 0.00 0.00 0.00 46 1004.0
20260504173018 25 252 1.6 25.7 0.00 0.00 0.00 47 1004.0
20260504172522 25 244 3.2 25.7 0.00 0.00 0.00 47 1004.0
20260504172027 25 255 4.8 22.5 0.00 0.00 0.00 47 1004.0
20260504171552 25 216 4.8 17.7 0.00 0.00 0.00 47 1003.9
20260504171019 25 264 3.2 24.1 0.00 0.00 0.00 47 1004.0
20260504170544 25 207 6.4 24.1 0.00 0.00 0.00 46 1003.9
20260504151031 22 255 8.0 29.0 0.00 0.00 0.00 48 1004.4
20260504150556 22 257 4.8 22.5 0.00 0.00 0.00 49 1004.4
20260504141033 20 218 3.2 16.1 0.00 0.00 0.00 53 1005.3
20260504140519 20 201 4.8 16.1 0.00 0.00 0.00 54 1005.3
20260504130523 18 207 3.2 16.1 0.00 0.00 0.00 57 1005.7
20260504110521 17 227 1.6 12.9 0.00 0.00 0.00 55 1005.9
20260504100536 18 215 0.0 4.8 0.00 0.00 0.00 55 1006.5
20260504081529 18 242 1.6 6.4 0.00 0.00 0.00 54 1006.6
20260504081054 18 224 1.6 6.4 0.00 0.00 0.00 54 1006.6
20260504080519 18 234 0.0 6.4 0.00 0.00 0.00 54 1006.6